This demonstration page uses our WeatherBlox Daily Observations layout. Learn more.

Left ArrowRight Arrow

40.92945, -100.16068

Hourly Observations for February 28, 2022

Temp ( °F °C ) Dew Point ( °F °C ) Humidity (%) Winds ( mph kmh ) Pressure ( in mb ) Visibility ( mi km ) Precip ( " mm )
12:15 am 00:15 Clear 22 -5.7 4 -15.7 46 46 WNW 6 9 30.32 1027 10 16 0.00 0.00
12:35 am 00:35 Clear 23 -5.1 5 -15.2 45 45 WNW 7 11 30.30 1026 10 16 0.00 0.00
12:55 am 00:55 Clear 22 -5.4 5 -14.8 48 48 WNW 8 13 30.30 1026 10 16 0.00 0.00
1:15 am 01:15 Clear 25 -3.7 8 -13.6 47 47 WNW 9 15 30.30 1026 10 16 0.00 0.00
1:35 am 01:35 Clear 28 -2.3 10 -12.2 47 47 WNW 10 17 30.29 1026 10 16 0.00 0.00
1:55 am 01:55 Clear 27 -2.6 11 -11.7 50 50 WNW 12 19 30.29 1026 10 16 0.00 0.00
2:15 am 02:15 Clear 27 -2.7 11 -11.5 51 51 WNW 12 19 30.29 1026 10 16 0.00 0.00
2:35 am 02:35 Clear 27 -3 12 -11 54 54 WNW 9 15 30.29 1026 10 16 0.00 0.00
2:55 am 02:55 Clear 27 -2.9 13 -10.3 57 57 WNW 10 17 30.29 1026 10 16 0.00 0.00
3:15 am 03:15 Clear 28 -2.5 14 -9.8 58 58 WNW 12 19 30.28 1025 10 16 0.00 0.00
3:35 am 03:35 Clear 26 -3.5 14 -10.1 61 61 WNW 9 15 30.28 1025 10 16 0.00 0.00
3:55 am 03:55 Clear 25 -3.8 14 -9.9 63 63 WNW 8 13 30.29 1026 10 16 0.00 0.00
4:15 am 04:15 Clear 26 -3.3 15 -9.3 64 64 WNW 12 19 30.28 1025 10 16 0.00 0.00
4:35 am 04:35 Clear 30 -0.9 18 -7.9 59 59 WNW 15 24 30.26 1025 10 16 0.00 0.00
4:55 am 04:55 Clear 29 -1.5 17 -8.2 61 61 WNW 12 19 30.27 1025 10 16 0.00 0.00
5:15 am 05:15 Clear 28 -2 17 -8.3 62 62 WNW 12 19 30.29 1026 10 16 0.00 0.00
5:35 am 05:35 Clear 29 -1.5 18 -8 62 62 W 9 15 30.27 1025 10 16 0.00 0.00
5:55 am 05:55 Clear 29 -1.6 18 -8 62 62 WNW 8 13 30.28 1026 10 16 0.00 0.00
6:15 am 06:15 Clear 30 -1.2 18 -7.8 61 61 WNW 6 9 30.28 1025 10 16 0.00 0.00
6:35 am 06:35 Clear 30 -1 18 -8 59 59 W 8 13 30.28 1025 10 16 0.00 0.00
6:55 am 06:55 Clear 31 -0.8 18 -7.6 60 60 W 8 13 30.28 1025 10 16 0.00 0.00
7:15 am 07:15 Sunny 31 -0.7 18 -7.7 59 59 W 9 15 30.27 1025 10 16 0.00 0.00
7:35 am 07:35 Sunny 30 -1.1 18 -8 60 60 WNW 9 15 30.28 1025 10 16 0.00 0.00
7:55 am 07:55 Sunny 31 -0.7 18 -7.9 59 59 WNW 12 19 30.29 1026 10 16 0.00 0.00
8:15 am 08:15 Sunny 32 0 18 -7.6 57 57 WNW 12 19 30.29 1026 10 16 0.00 0.00
8:35 am 08:35 Sunny 33 0.7 19 -7.3 55 55 WNW 10 17 30.27 1025 10 16 0.00 0.00
8:55 am 08:55 Sunny 35 1.5 19 -7.2 53 53 WNW 12 19 30.27 1025 10 16 0.00 0.00
9:15 am 09:15 Sunny 39 3.8 19 -7 46 46 WNW 13 20 30.25 1024 10 16 0.00 0.00
9:35 am 09:35 Sunny 41 5.1 19 -7 42 42 WNW 13 20 30.24 1024 10 16 0.00 0.00
9:55 am 09:55 Sunny 43 6.2 20 -6.8 39 39 WNW 10 17 30.23 1024 10 16 0.00 0.00
10:15 am 10:15 Sunny 46 7.5 20 -6.6 36 36 WNW 12 19 30.21 1023 10 16 0.00 0.00
10:35 am 10:35 Sunny 47 8.1 20 -6.5 35 35 WNW 8 13 30.21 1023 10 16 0.00 0.00
10:55 am 10:55 Sunny 50 10.2 21 -6.1 31 31 WNW 9 15 30.19 1022 10 16 0.00 0.00
11:15 am 11:15 Sunny 53 11.7 21 -6.2 28 28 WNW 7 11 30.17 1022 10 16 0.00 0.00
11:35 am 11:35 Sunny 55 12.8 20 -6.7 25 25 WNW 6 9 30.16 1021 10 16 0.00 0.00
11:55 am 11:55 Sunny 57 14.1 18 -7.8 21 21 W 7 11 30.13 1020 10 16 0.00 0.00
12:15 pm 12:15 Sunny 60 15.3 16 -9.1 18 18 W 6 9 30.12 1020 10 16 0.00 0.00
12:35 pm 12:35 Sunny 61 16 11 -11.5 14 14 Calm 30.10 1019 10 16 0.00 0.00
12:55 pm 12:55 Sunny 62 16.9 9 -12.7 12 12 W 3 6 30.07 1018 10 16 0.00 0.00
1:15 pm 13:15 Sunny 63 17 11 -11.8 13 13 WNW 3 6 30.06 1018 10 16 0.00 0.00
1:35 pm 13:35 Sunny 65 18.1 9 -12.8 11 11 W 6 9 30.05 1018 10 16 0.00 0.00
1:55 pm 13:55 Sunny 64 18 8 -13.1 11 11 Calm 30.03 1017 10 16 0.00 0.00
2:15 pm 14:15 Sunny 65 18.3 8 -13.2 11 11 WNW 7 11 30.03 1017 10 16 0.00 0.00
2:35 pm 14:35 Sunny 66 18.8 8 -13.4 10 10 WNW 8 13 30.00 1016 10 16 0.00 0.00
2:55 pm 14:55 Sunny 66 19 7 -14 9 9 W 10 17 29.99 1016 10 16 0.00 0.00
3:15 pm 15:15 Sunny 67 19.4 8 -13.6 9 9 SW 7 11 29.98 1015 10 16 0.00 0.00
3:35 pm 15:35 Sunny 67 19.7 7 -13.8 9 9 W 12 19 29.97 1015 10 16 0.00 0.00
3:55 pm 15:55 Sunny 68 19.8 8 -13.6 9 9 WSW 10 17 29.96 1015 10 16 0.00 0.00
4:15 pm 16:15 Sunny 68 19.8 8 -13.4 9 9 SW 16 26 29.95 1014 10 16 0.00 0.00
4:35 pm 16:35 Sunny 67 19.4 7 -14 9 9 WSW 13 20 29.95 1014 10 16 0.00 0.00
4:55 pm 16:55 Sunny 66 19 8 -13.5 10 10 WSW 10 17 29.94 1014 10 16 0.00 0.00
5:15 pm 17:15 Sunny 66 18.7 8 -13.4 10 10 WSW 10 17 29.95 1014 10 16 0.00 0.00
5:35 pm 17:35 Sunny 65 18.1 10 -12.5 11 11 WSW 10 17 29.95 1014 10 16 0.00 0.00
5:55 pm 17:55 Sunny 62 16.6 9 -12.6 12 12 WSW 7 11 29.97 1015 10 16 0.00 0.00
6:15 pm 18:15 Sunny 55 12.9 8 -13.4 15 15 WSW 6 9 30.00 1016 10 16 0.00 0.00
6:35 pm 18:35 Clear 53 11.7 8 -13.2 16 16 SW 5 7 30.01 1016 10 16 0.00 0.00
6:55 pm 18:55 Clear 50 10.1 7 -13.9 17 17 SW 5 7 30.02 1017 10 16 0.00 0.00
7:15 pm 19:15 Clear 48 8.8 7 -13.9 19 19 SW 6 9 30.04 1017 10 16 0.00 0.00
7:35 pm 19:35 Clear 46 8 7 -14.1 19 19 WSW 5 7 30.05 1018 10 16 0.00 0.00
7:55 pm 19:55 Clear 44 6.9 6 -14.2 21 21 SW 6 9 30.05 1018 10 16 0.00 0.00
8:15 pm 20:15 Clear 41 5 6 -14.5 23 23 SW 6 9 30.07 1018 10 16 0.00 0.00
8:35 pm 20:35 Clear 40 4.6 6 -14.5 24 24 SW 6 9 30.07 1018 10 16 0.00 0.00
8:55 pm 20:55 Clear 36 2 4 -15.5 26 26 Calm 30.10 1019 10 16 0.00 0.00
9:15 pm 21:15 Clear 36 2 5 -15 27 27 Calm 30.10 1019 10 16 0.00 0.00
9:35 pm 21:35 Clear 37 2.9 7 -13.8 28 28 WNW 5 7 30.09 1019 10 16 0.00 0.00
9:55 pm 21:55 Clear 31 -0.7 3 -15.9 31 31 NNW 8 13 30.13 1020 10 16 0.00 0.00
10:15 pm 22:15 Clear 33 0.5 5 -15 31 31 NNW 5 7 30.12 1020 10 16 0.00 0.00
10:35 pm 22:35 Clear 32 -0.1 5 -15 32 32 W 3 6 30.14 1021 10 16 0.00 0.00
10:55 pm 22:55 Clear 31 -0.8 7 -13.9 37 37 WSW 5 7 30.15 1021 10 16 0.00 0.00
11:15 pm 23:15 Clear 30 -1 7 -13.9 37 37 SW 6 9 30.14 1021 10 16 0.00 0.00
11:35 pm 23:35 Clear 31 -0.5 6 -14.3 35 35 WSW 6 9 30.13 1020 10 16 0.00 0.00
11:55 pm 23:55 Clear 40 4.7 16 -8.9 37 37 W 10 17 30.08 1019 10 16 0.00 0.00

Powered by AerisWeather